Weather History for Indianapolis, IN

Change the Weather History Date:

Saturday, December 3, 2011

  Actual Average (KEYE) Record (KEYE)
Temperature  
Mean Temperature 43 °F 36 °F  
Max Temperature 52 °F 43 °F 69 °F (2012)
Min Temperature 34 °F 29 °F 16 °F (2002)
Degree Days  
Heating Degree Days 22 29  
Month to date heating degree days 86  
Since 1 July heating degree days 1110  
Cooling Degree Days 0 0  
Month to date cooling degree days 0  
Year to date cooling degree days 1058  
Moisture  
Dew Point 36 °F    
Average Humidity 73    
Maximum Humidity 92    
Minimum Humidity 58    
Precipitation  
Precipitation 0.00 in 0.08 in 0.20 in (1993)
Month to date precipitation 0.25  
Year to date precipitation 37.96  
Sea Level Pressure  
Sea Level Pressure 30.33 in    
Wind  
Wind Speed 8 mph (SSE)    
Max Wind Speed 14 mph    
Max Gust Speed 20 mph    
Visibility 9 miles    
Events      
T = Trace of Precipitation, MM = Missing Value Source: NWS Daily Summary

Daily Weather History Graph

Daily Weather History Graph

Search for Another Location

Airport:

Trip Planner

Search our weather history database for the weather conditions in past years. The results will help you decide how hot, cold, wet, or windy it might be!

Date:

Astronomy

Dec. 03, 2011 Rise Set
Actual Time 7:49 AM EST 5:19 PM EST
Civil Twilight 7:19 AM EST 5:49 PM EST
Nautical Twilight 6:45 AM EST 6:23 PM EST
Astronomical Twilight 6:12 AM EST 6:56 PM EST
Moon 1:24 PM EST (12/3) 1:17 AM EST (12/3)
Length of Visible Light 10h 30m
Length of Day
9h 30m
Waxing Gibbous, 62% of the Moon is Illuminated
Dec 3
Waxing Gibbous
Dec 10
Full
Dec 17
Last Quarter
Dec 24
New
Jan 1
First Quarter

Hourly Weather History & Observations

Time (EST) Temp. Windchill Dew Point Humidity Pressure Visibility Wind Dir Wind Speed Gust Speed Precip Events Conditions
12:15 AM 34.3 °F 28.4 °F 32.2 °F 92% 30.43 in 5.0 mi SSE 6.9 mph - N/A   Clear
12:35 AM 34.7 °F 28.8 °F 32.4 °F 91% 30.42 in 5.0 mi SSE 6.9 mph - N/A   Clear
12:55 AM 35.1 °F 28.6 °F 32.5 °F 91% 30.42 in 5.0 mi SSE 8.1 mph - N/A   Clear
1:15 AM 35.6 °F 29.2 °F 32.9 °F 90% 30.41 in 5.0 mi SE 8.1 mph - N/A   Clear
1:35 AM 36.0 °F 30.3 °F 32.9 °F 89% 30.40 in 7.0 mi SSE 6.9 mph - N/A   Scattered Clouds
1:55 AM 36.3 °F 30.1 °F 32.9 °F 87% 30.39 in 7.0 mi SSE 8.1 mph - N/A   Scattered Clouds
2:15 AM 36.9 °F 30.1 °F 33.1 °F 86% 30.38 in 7.0 mi SSE 9.2 mph - N/A   Mostly Cloudy
2:35 AM 37.8 °F 31.3 °F 33.6 °F 85% 30.39 in 7.0 mi SSE 9.2 mph - N/A   Overcast
2:55 AM 38.3 °F 32.5 °F 33.8 °F 84% 30.39 in 7.0 mi SSE 8.1 mph - N/A   Overcast
3:15 AM 38.5 °F 33.4 °F 34.2 °F 84% 30.40 in 10.0 mi SSE 6.9 mph - N/A   Overcast
3:35 AM 38.7 °F 33.6 °F 34.3 °F 84% 30.40 in 10.0 mi SSE 6.9 mph - N/A   Overcast
3:55 AM 39.2 °F 34.2 °F 34.7 °F 84% 30.39 in 10.0 mi SSE 6.9 mph - N/A   Overcast
4:15 AM 40.1 °F 34.7 °F 35.1 °F 82% 30.38 in 10.0 mi SSE 8.1 mph - N/A   Overcast
4:35 AM 40.5 °F 34.6 °F 35.1 °F 81% 30.37 in 10.0 mi SSE 9.2 mph - N/A   Overcast
4:55 AM 39.7 °F 34.3 °F 34.7 °F 82% 30.36 in 10.0 mi SSE 8.1 mph - N/A   Mostly Cloudy
5:15 AM 39.6 °F 33.0 °F 34.5 °F 82% 30.36 in 10.0 mi SSE 10.4 mph - N/A   Scattered Clouds
5:35 AM 39.6 °F 33.5 °F 34.2 °F 81% 30.36 in 10.0 mi SSE 9.2 mph - N/A   Clear
5:55 AM 39.7 °F 33.7 °F 34.0 °F 80% 30.36 in 10.0 mi SSE 9.2 mph - N/A   Scattered Clouds
6:15 AM 39.7 °F 33.7 °F 34.0 °F 80% 30.35 in 10.0 mi SSE 9.2 mph - N/A   Scattered Clouds
6:35 AM 40.1 °F 34.7 °F 34.2 °F 79% 30.36 in 10.0 mi South 8.1 mph - N/A   Scattered Clouds
6:55 AM 40.6 °F 35.4 °F 34.3 °F 78% 30.36 in 10.0 mi South 8.1 mph - N/A   Mostly Cloudy
7:15 AM 41.2 °F 35.5 °F 34.7 °F 78% 30.36 in 10.0 mi South 9.2 mph - N/A   Overcast
7:35 AM 41.4 °F 34.7 °F 34.7 °F 77% 30.36 in 10.0 mi South 11.5 mph - N/A   Overcast
7:55 AM 41.5 °F 35.4 °F 34.7 °F 77% 30.36 in 10.0 mi South 10.4 mph - N/A   Overcast
8:15 AM 41.9 °F 36.9 °F 34.7 °F 76% 30.36 in 10.0 mi SSE 8.1 mph - N/A   Overcast
8:35 AM 42.1 °F 36.1 °F 34.9 °F 76% 30.36 in 10.0 mi South 10.4 mph - N/A   Overcast
8:55 AM 42.8 °F 37.5 °F 35.1 °F 74% 30.36 in 10.0 mi South 9.2 mph - N/A   Overcast
9:15 AM 43.0 °F 38.2 °F 35.4 °F 75% 30.37 in 10.0 mi South 8.1 mph - N/A   Overcast
9:35 AM 43.3 °F 38.6 °F 35.6 °F 74% 30.37 in 10.0 mi South 8.1 mph - N/A   Overcast
9:55 AM 44.1 °F 39.5 °F 35.8 °F 73% 30.37 in 10.0 mi SSE 8.1 mph 16.1 mph N/A   Mostly Cloudy
10:15 AM 45.0 °F 41.2 °F 36.0 °F 71% 30.37 in 10.0 mi South 6.9 mph - N/A   Mostly Cloudy
10:35 AM 46.2 °F 42.7 °F 36.7 °F 69% 30.37 in 10.0 mi South 6.9 mph - N/A   Overcast
10:55 AM 46.4 °F 42.9 °F 36.9 °F 69% 30.37 in 10.0 mi SSE 6.9 mph - N/A   Overcast
11:15 AM 46.8 °F - 37.0 °F 69% 30.36 in 10.0 mi SSE 6.9 mph - N/A   Overcast
11:35 AM 48.0 °F - 37.8 °F 68% 30.35 in 10.0 mi SSE 5.8 mph - N/A   Mostly Cloudy
11:55 AM 48.6 °F - 37.6 °F 66% 30.35 in 10.0 mi South 6.9 mph - N/A   Overcast
12:15 PM 49.1 °F - 37.8 °F 65% 30.34 in 10.0 mi South 5.8 mph - N/A   Overcast
12:35 PM 50.0 °F - 38.1 °F 64% 30.33 in 10.0 mi South 5.8 mph - N/A   Overcast
12:55 PM 50.5 °F - 38.1 °F 62% 30.32 in 10.0 mi South 6.9 mph - N/A   Overcast
1:15 PM 50.7 °F - 37.9 °F 62% 30.31 in 10.0 mi South 5.8 mph - N/A   Overcast
1:35 PM 51.1 °F - 38.1 °F 61% 30.31 in 10.0 mi South 5.8 mph - N/A   Overcast
1:55 PM 50.9 °F - 37.8 °F 61% 30.29 in 10.0 mi SSE 6.9 mph - N/A   Scattered Clouds
2:15 PM 50.9 °F - 38.7 °F 63% 30.27 in 10.0 mi SSE 8.1 mph - N/A   Clear
2:35 PM 51.1 °F - 38.5 °F 62% 30.27 in 10.0 mi SSE 9.2 mph - N/A   Clear
3:15 PM 51.8 °F - 38.7 °F 61% 30.23 in 10.0 mi SE 9.2 mph - N/A   Clear
3:35 PM 51.4 °F - 38.1 °F 60% 30.23 in 10.0 mi SE 8.1 mph - N/A   Clear
3:55 PM 51.6 °F - 38.5 °F 61% 30.22 in 10.0 mi SSE 8.1 mph - N/A   Clear
4:15 PM 52.9 °F - 38.7 °F 58% 30.23 in 10.0 mi SSE 9.2 mph - N/A   Clear
4:35 PM 52.2 °F - 38.3 °F 59% 30.23 in 10.0 mi SE 10.4 mph - N/A   Clear
4:55 PM 51.3 °F - 38.3 °F 61% 30.22 in 10.0 mi SE 9.2 mph - N/A   Clear
5:15 PM 49.1 °F - 38.3 °F 66% 30.22 in 10.0 mi SE 6.9 mph - N/A   Clear
5:35 PM 48.2 °F - 38.3 °F 69% 30.22 in 10.0 mi SSE 9.2 mph - N/A   Clear
5:55 PM 48.9 °F - 37.9 °F 66% 30.21 in 10.0 mi SSE 10.4 mph - N/A   Clear
6:15 PM 49.3 °F - 37.6 °F 64% 30.21 in 10.0 mi SSE 11.5 mph - N/A   Clear
6:35 PM 50.0 °F - 37.8 °F 63% 30.21 in 10.0 mi SSE 11.5 mph - N/A   Clear
6:55 PM 49.5 °F - 37.8 °F 64% 30.18 in 10.0 mi SE 13.8 mph - N/A   Clear
7:15 PM 49.5 °F - 37.8 °F 64% 30.17 in 10.0 mi SSE 13.8 mph 19.6 mph N/A   Clear
7:35 PM 49.3 °F - 37.4 °F 64% 30.18 in 10.0 mi SSE 13.8 mph 19.6 mph N/A   Clear
7:55 PM 49.3 °F - 37.2 °F 63% 30.18 in 10.0 mi SSE 11.5 mph - N/A   Clear
8:15 PM 50.0 °F - 37.4 °F 62% 30.19 in 10.0 mi South 11.5 mph - N/A   Clear
8:35 PM 50.0 °F - 37.4 °F 62% 30.19 in 10.0 mi South 10.4 mph - N/A   Clear
8:55 PM 50.2 °F - 36.7 °F 60% 30.19 in 10.0 mi South 11.5 mph - N/A   Clear
9:15 PM 48.7 °F - 36.5 °F 63% 30.18 in 10.0 mi SSE 10.4 mph - N/A   Clear
9:35 PM 48.4 °F - 36.0 °F 62% 30.17 in 10.0 mi SSE 10.4 mph - N/A   Clear
9:55 PM 48.2 °F - 36.0 °F 63% 30.17 in 10.0 mi SSE 11.5 mph - N/A   Clear
10:15 PM 48.4 °F - 35.8 °F 62% 30.15 in 10.0 mi SSE 12.7 mph 17.3 mph N/A   Clear
10:35 PM 49.8 °F - 35.2 °F 57% 30.14 in 10.0 mi SSE 12.7 mph 18.4 mph N/A   Clear
10:55 PM 50.0 °F - 35.2 °F 57% 30.13 in 10.0 mi South 13.8 mph - N/A   Scattered Clouds
11:15 PM 50.7 °F - 34.3 °F 53% 30.12 in 10.0 mi South 16.1 mph 20.7 mph N/A   Clear
11:35 PM 50.9 °F - 34.0 °F 52% 30.12 in 10.0 mi South 16.1 mph 21.9 mph N/A   Scattered Clouds
11:55 PM 50.7 °F - 34.0 °F 53% 30.12 in 10.0 mi South 13.8 mph 19.6 mph N/A   Mostly Cloudy